User: anonymous   Login
Location: Caltech
(34.1382°N, 118.1253°W)
Time: 23:34:22
(UTC-07:00)
Language:

Cosmos 2219 Rocket - Orbit

View from above orbital plane
View from above orbital plane
View from above satellite
View from above satellite

Ground track
Ground track

The orbit data is extracted from the following two-line orbital elements,

1 22220U 92076B   15090.98174056  .00000293  00000-0  17134-3 0  9990
2 22220 071.0010 320.4016 0010902 060.0331 035.3257 14.16358195156336
Epoch (UTC): 31 March 2015 23:33:42
Eccentricity: 0.0010902
inclination: 71.0010°
perigee height: 830 km
apogee height: 845 km
right ascension of ascending node: 320.4016°
argument of perigee: 60.0331°
revolutions per day: 14.16358195
mean anomaly at epoch: 35.3257°
orbit number at epoch: 15633

The dashed part of the orbit path shows where the satellite is in the earth's shadow,  

DLR